TimeEDT,TemperatureF,Dew PointF,Humidity,Sea Level PressureIn,VisibilityMPH,Wind Direction,Wind SpeedMPH,Gust SpeedMPH,PrecipitationIn,Events,Conditions,WindDirDegrees,DateUTC
12:14 AM,46.2,45.0,95,29.76,1.0,East,5.8,-,N/A,,Overcast,100,2013-05-29 04:14:00
12:35 AM,46.6,45.5,96,29.75,1.0,ESE,4.6,-,N/A,,Overcast,110,2013-05-29 04:35:00
12:54 AM,47.1,46.0,96,29.77,1.0,Calm,Calm,-,N/A,,Overcast,0,2013-05-29 04:54:00
1:14 AM,48.7,47.8,97,29.75,0.8,Calm,Calm,-,N/A,,Overcast,0,2013-05-29 05:14:00
1:35 AM,47.7,46.8,97,29.76,0.8,Calm,Calm,-,N/A,,Overcast,0,2013-05-29 05:35:00
1:54 AM,46.9,46.0,97,29.75,1.0,Calm,Calm,-,N/A,,Overcast,0,2013-05-29 05:54:00
2:14 AM,45.7,44.8,97,29.75,0.8,ENE,3.5,-,N/A,,Overcast,70,2013-05-29 06:14:00
2:35 AM,45.5,44.6,97,29.75,0.5,ENE,3.5,-,N/A,Fog,Fog,70,2013-05-29 06:35:00
2:54 AM,45.7,44.8,97,29.76,0.5,ENE,3.5,-,N/A,Fog,Fog,60,2013-05-29 06:54:00
3:14 AM,46.4,45.3,96,29.75,0.5,ENE,5.8,-,N/A,Fog,Fog,60,2013-05-29 07:14:00
3:35 AM,46.4,45.5,97,29.75,0.5,ENE,3.5,-,N/A,Fog,Fog,70,2013-05-29 07:35:00
3:54 AM,46.6,45.7,97,29.75,0.5,ENE,5.8,-,N/A,Fog,Fog,60,2013-05-29 07:54:00
4:14 AM,46.8,45.9,97,29.76,0.8,Calm,Calm,-,N/A,,Overcast,0,2013-05-29 08:14:00
4:34 AM,47.3,46.4,97,29.76,2.0,Calm,Calm,-,N/A,,Overcast,0,2013-05-29 08:34:00
4:54 AM,47.7,46.8,97,29.77,1.2,SW,3.5,-,N/A,,Overcast,230,2013-05-29 08:54:00
5:14 AM,48.9,48.0,97,29.77,0.8,Calm,Calm,-,N/A,,Overcast,0,2013-05-29 09:14:00
5:35 AM,49.1,48.2,97,29.77,1.2,WSW,3.5,-,N/A,,Overcast,250,2013-05-29 09:35:00
5:54 AM,48.6,47.7,97,29.79,1.0,West,3.5,-,N/A,,Overcast,260,2013-05-29 09:54:00
6:14 AM,48.2,47.3,97,29.78,0.2,Calm,Calm,-,N/A,Fog,Fog,0,2013-05-29 10:14:00
6:34 AM,48.6,47.7,97,29.78,0.2,WNW,3.5,-,N/A,Fog,Fog,300,2013-05-29 10:34:00
6:54 AM,49.1,48.2,97,29.80,0.2,WNW,3.5,-,N/A,Fog,Fog,290,2013-05-29 10:54:00
7:14 AM,49.3,48.4,97,29.81,0.2,Calm,Calm,-,N/A,Fog,Fog,0,2013-05-29 11:14:00
7:34 AM,49.6,48.7,97,29.82,0.2,SW,4.6,-,N/A,Fog,Fog,230,2013-05-29 11:34:00
7:54 AM,50.0,49.1,97,29.82,0.2,SW,6.9,-,N/A,Fog,Fog,220,2013-05-29 11:54:00
8:14 AM,49.3,48.4,97,29.82,0.2,WSW,5.8,-,N/A,Fog,Fog,250,2013-05-29 12:14:00
8:34 AM,49.8,48.9,97,29.82,0.2,West,4.6,-,N/A,Fog,Fog,260,2013-05-29 12:34:00
8:54 AM,50.0,49.1,97,29.83,0.2,West,8.1,-,N/A,Fog,Fog,270,2013-05-29 12:54:00
9:14 AM,50.0,49.1,97,29.84,0.8,WSW,4.6,-,N/A,,Overcast,250,2013-05-29 13:14:00
9:34 AM,50.2,49.3,97,29.84,1.2,West,4.6,-,N/A,,Overcast,260,2013-05-29 13:34:00
9:54 AM,50.4,49.5,97,29.85,1.0,West,8.1,-,N/A,,Overcast,260,2013-05-29 13:54:00
10:14 AM,50.9,50.0,97,29.86,2.0,West,5.8,-,N/A,,Overcast,260,2013-05-29 14:14:00
10:34 AM,50.9,50.0,97,29.86,5.0,WSW,10.4,-,N/A,,Overcast,250,2013-05-29 14:34:00
10:55 AM,50.5,49.6,97,29.87,10.0,WSW,11.5,20.7,N/A,,Overcast,240,2013-05-29 14:55:00
11:14 AM,50.7,49.8,97,29.87,1.8,WSW,12.7,19.6,N/A,,Overcast,250,2013-05-29 15:14:00
11:34 AM,51.6,50.7,97,29.88,3.0,WSW,8.1,18.4,N/A,,Overcast,250,2013-05-29 15:34:00
11:55 AM,51.1,50.2,97,29.88,1.2,SW,9.2,19.6,N/A,,Overcast,230,2013-05-29 15:55:00
12:14 PM,51.1,50.2,97,29.89,0.8,WSW,9.2,-,N/A,,Overcast,250,2013-05-29 16:14:00
12:34 PM,51.1,50.2,97,29.90,0.5,WSW,11.5,19.6,N/A,Fog,Fog,240,2013-05-29 16:34:00
12:55 PM,52.0,51.1,97,29.90,3.0,WSW,8.1,19.6,N/A,,Overcast,250,2013-05-29 16:55:00
1:14 PM,52.2,51.3,97,29.90,7.0,WSW,6.9,-,N/A,,Overcast,240,2013-05-29 17:14:00
1:35 PM,51.8,50.9,97,29.90,5.0,WSW,9.2,-,N/A,,Overcast,240,2013-05-29 17:35:00
1:54 PM,51.8,50.7,96,29.92,2.5,WSW,6.9,-,N/A,,Overcast,240,2013-05-29 17:54:00
2:14 PM,52.5,51.6,97,29.92,5.0,WSW,11.5,-,N/A,,Overcast,250,2013-05-29 18:14:00
2:34 PM,53.6,52.3,95,29.92,5.0,WSW,6.9,-,N/A,,Overcast,250,2013-05-29 18:34:00
2:55 PM,55.4,53.8,94,29.92,10.0,WSW,10.4,-,N/A,,Overcast,240,2013-05-29 18:55:00
3:14 PM,54.0,52.5,95,29.93,2.5,WSW,10.4,18.4,N/A,,Overcast,250,2013-05-29 19:14:00
3:34 PM,56.1,54.5,94,29.93,10.0,WSW,6.9,-,N/A,,Overcast,250,2013-05-29 19:34:00
3:54 PM,56.1,54.3,94,29.93,10.0,WSW,6.9,-,N/A,,Overcast,250,2013-05-29 19:54:00
4:14 PM,57.2,55.4,94,29.92,10.0,West,6.9,-,N/A,,Overcast,260,2013-05-29 20:14:00
4:34 PM,58.6,56.1,91,29.93,10.0,WSW,4.6,-,N/A,,Overcast,250,2013-05-29 20:34:00
4:55 PM,58.8,56.3,91,29.92,10.0,West,5.8,-,N/A,,Overcast,270,2013-05-29 20:55:00
5:14 PM,59.0,56.3,91,29.92,10.0,WSW,5.8,-,N/A,,Overcast,240,2013-05-29 21:14:00
5:34 PM,58.5,55.8,91,29.93,10.0,WSW,11.5,16.1,N/A,,Overcast,250,2013-05-29 21:34:00
5:55 PM,59.4,56.3,90,29.92,10.0,WSW,9.2,-,N/A,,Overcast,250,2013-05-29 21:55:00
6:14 PM,60.3,56.7,88,29.92,10.0,West,8.1,-,N/A,,Overcast,260,2013-05-29 22:14:00
6:34 PM,59.9,56.5,88,29.92,10.0,West,6.9,-,N/A,,Overcast,260,2013-05-29 22:34:00
6:55 PM,60.1,57.0,90,29.92,10.0,WSW,4.6,-,N/A,,Overcast,250,2013-05-29 22:55:00
7:14 PM,59.9,57.2,91,29.91,10.0,West,6.9,-,N/A,,Overcast,270,2013-05-29 23:14:00
7:34 PM,59.9,57.2,91,29.91,10.0,West,6.9,-,N/A,,Overcast,280,2013-05-29 23:34:00
7:55 PM,59.9,57.2,91,29.91,10.0,West,4.6,-,N/A,,Overcast,280,2013-05-29 23:55:00
8:14 PM,59.9,57.2,91,29.91,10.0,Calm,Calm,-,N/A,,Overcast,0,2013-05-30 00:14:00
8:34 PM,59.9,57.4,91,29.90,10.0,Calm,Calm,-,N/A,,Overcast,0,2013-05-30 00:34:00
8:55 PM,60.4,57.6,90,29.90,10.0,Calm,Calm,-,N/A,,Overcast,0,2013-05-30 00:55:00
9:14 PM,60.4,57.7,91,29.90,10.0,Calm,Calm,-,N/A,,Overcast,0,2013-05-30 01:14:00
9:34 PM,59.7,57.0,91,29.90,10.0,Calm,Calm,-,N/A,,Overcast,0,2013-05-30 01:34:00
9:55 PM,58.5,56.3,93,29.90,7.0,ESE,3.5,-,N/A,,Overcast,120,2013-05-30 01:55:00
10:14 PM,57.2,55.4,94,29.91,5.0,Calm,Calm,-,N/A,,Scattered Clouds,0,2013-05-30 02:14:00
10:34 PM,56.3,54.5,94,29.93,4.0,Calm,Calm,-,N/A,,Clear,0,2013-05-30 02:34:00
10:55 PM,55.6,54.0,94,29.93,5.0,SE,8.1,-,N/A,,Clear,130,2013-05-30 02:55:00
11:14 PM,55.6,54.1,95,29.93,7.0,SE,10.4,-,N/A,,Clear,130,2013-05-30 03:14:00
11:34 PM,55.9,54.5,95,29.92,5.0,ESE,5.8,-,N/A,,Clear,110,2013-05-30 03:34:00
11:55 PM,56.7,55.4,96,29.92,5.0,ESE,5.8,-,N/A,,Clear,110,2013-05-30 03:55:00